User: anonymous   Login
Location: Ellingshausen
(50.5460°N, 10.4723°E)
Time: 18:15:00
(UTC+00:00)
Language:

Cosmos 1500 Rocket - Orbit

View from above orbital plane
View from above orbital plane
View from above satellite
View from above satellite

Ground track
Ground track

The orbit is defined by the following mean orbital elements,

1 14373U          26064.60446236 +.00000000 +00000-0 +78987-4 0 00003
2 14373  82.5412 146.3908 0020170 147.8715 212.3736 14.86228943    07
Epoch (UTC): 05 March 2026 14:30:25
Eccentricity: 0.0020170
inclination: 82.5412°
perigee height: 596 km
apogee height: 624 km
right ascension of ascending node: 146.3908°
argument of perigee: 147.8715°
revolutions per day: 14.86228943
mean anomaly at epoch: 212.3736°

The dashed part of the orbit path shows where the satellite is in the earth's shadow,  

DLR